This is the latest recevied weather packets stored in our database for station/object wb2ifs-13. If no packets are shown the sender has not sent any weather packets the latest 10 day(s).
| Time | Temp. | Humidity | Pressure | Rain* | Wind** | Luminosity | Snow |
|---|---|---|---|---|---|---|---|
| 1777814099 | 8.33° C | 54% | 1018 hPa | 0 mm | - | - | - |
| 1777813199 | 7.78° C | 58% | 1017.8 hPa | 0 mm | - | - | - |
| 1777812299 | 7.78° C | 62% | 1017.8 hPa | 0 mm | - | - | - |
| 1777811400 | 7.22° C | 62% | 1017.7 hPa | 0 mm | - | - | - |
| 1777810498 | 7.22° C | 65% | 1017.6 hPa | 0 mm | - | - | - |
| 1777809601 | 6.67° C | 66% | 1017.4 hPa | 0 mm | - | - | - |
| 1777808698 | 6.67° C | 68% | 1017.3 hPa | 0 mm | - | - | - |
| 1777807799 | 6.11° C | 69% | 1016.9 hPa | 0 mm | - | - | - |
| 1777806898 | 6.11° C | 72% | 1016.8 hPa | 0 mm | - | - | - |
| 1777805999 | 5.56° C | 71% | 1016.8 hPa | 0 mm | - | - | - |
| 1777805099 | 5.56° C | 72% | 1016.5 hPa | 0 mm | - | - | - |
| 1777804199 | 5.56° C | 73% | 1016.3 hPa | 0 mm | - | - | - |
| 1777803298 | 5.56° C | 74% | 1016 hPa | 0 mm | - | - | - |
| 1777802399 | 5.56° C | 74% | 1015.8 hPa | 0 mm | - | - | - |
| 1777801499 | 5.56° C | 74% | 1015.6 hPa | 0 mm | - | - | - |
| 1777800598 | 5.56° C | 72% | 1015.5 hPa | 0 mm | - | - | - |
| 1777799699 | 5.56° C | 73% | 1015.4 hPa | 0 mm | - | - | - |
| 1777798801 | 6.11° C | 73% | 1015.3 hPa | 0 mm | - | - | - |
| 1777797898 | 6.11° C | 73% | 1015.2 hPa | 0 mm | - | - | - |
| 1777796999 | 6.11° C | 72% | 1015.3 hPa | 0 mm | - | - | - |
| 1777796098 | 6.11° C | 72% | 1015.2 hPa | 0 mm | - | - | - |
| 1777795200 | 6.67° C | 70% | 1015.2 hPa | 0 mm | - | - | - |
| 1777794298 | 6.67° C | 70% | 1014.9 hPa | 0 mm | - | - | - |
| 1777793398 | 6.67° C | 70% | 1014.8 hPa | 0 mm | - | - | - |
| 1777792498 | 6.67° C | 71% | 1014.7 hPa | 0 mm | - | - | - |
* Rain latest hour (hover to see other rain measurements)
** Current wind speed in m/s (hover to see current wind gust speed)